User: anonymous   Login
Location: Stigler
(35.2540°N, 95.1230°W)
Time: 19:37:06
(UTC-06:00)
Language:

Cosmos 1805 - Orbit

View from above orbital plane
View from above orbital plane
View from above satellite
View from above satellite

Ground track
Ground track

The orbit data is extracted from the following two-line orbital elements,

1 17191U 86097A   17326.28861319 +.00001458 +00000-0 +83325-4 0  9999
2 17191 082.4768 233.7375 0003233 241.7763 118.3141 15.11966516687244
Epoch (UTC): 22 November 2017 06:55:36
Eccentricity: 0.0003233
inclination: 82.4768°
perigee height: 528 km
apogee height: 532 km
right ascension of ascending node: 233.7375°
argument of perigee: 241.7763°
revolutions per day: 15.11966516
mean anomaly at epoch: 118.3141°
orbit number at epoch: 68724

The dashed part of the orbit path shows where the satellite is in the earth's shadow,  

DLR